Location: Howard City Library
(37.4684°N, 96.2639°W)
Time: 04:31:53
(UTC+00:00)

Cosmos 1707 Rocket - Pass Details

Date: 18 February 2020
Orbit: 606 x 631 km, 82.5° (Epoch: 29 March)

Event Time Altitude Azimuth Distance (km) Brightness Sun altitude
Rises 01:38:01 0° 349° (N) 2,910 7.1 -18.8°
Reaches altitude 10° 01:40:16 10° 346° (NNW) 2,003 6.3 -19.3°
Maximum altitude 01:44:39 64° 266° (W) 695 4.0 -20.1°
Drops below altitude 10° 01:49:03 10° 185° (S) 1,999 6.2 -21.0°
Sets 01:51:17 0° 182° (S) 2,904 7.0 -21.5°
